Location: Alexandria
(38.8050°N, 77.0470°W)
Time: 20:19:27

KAITUO 1B - Pass Details

Date: 25 February 2018
Orbit: 500 x 520 km, 97.5° (Epoch: 21 March)

Event Time Altitude Azimuth Distance (km) Brightness Sun altitude
Rises 18:34:00 0° 203° (SSW) 2,581 ? -8.0°
Reaches altitude 10° 18:36:38 10° 224° (SW) 1,702 ? -8.5°
Maximum altitude 18:39:05 17° 266° (W) 1,322 ? -9.0°
Drops below altitude 10° 18:41:34 10° 309° (NW) 1,710 ? -9.5°
Sets 18:44:14 0° 330° (NNW) 2,600 ? -10.0°
